This is the latest recevied weather packets stored in our database for station/object OK1OBR-13. If no packets are shown the sender has not sent any weather packets the latest 1 day(s).
| Time | Temp. | Humidity | Pressure | Rain* | Wind** | Luminosity | Snow |
|---|---|---|---|---|---|---|---|
| 1777972022 | 18.89° C | 47% | 930.7 hPa | 0 mm | 0 m/s | - | - |
| 1777971961 | 18.89° C | 46% | 930.7 hPa | 0 mm | 0.45 m/s, 128° | - | - |
| 1777971901 | 18.89° C | 45% | 930.5 hPa | 0 mm | 0.45 m/s, 126° | - | - |
| 1777971841 | 18.89° C | 46% | 930.5 hPa | 0 mm | 0.45 m/s, 195° | - | - |
| 1777971781 | 18.89° C | 49% | 930.6 hPa | 0 mm | 0.45 m/s, 147° | - | - |
| 1777971721 | 18.89° C | 45% | 930.4 hPa | 0 mm | 0 m/s | - | - |
| 1777971661 | 19.44° C | 46% | 930.7 hPa | 0 mm | 0.45 m/s, 142° | - | - |
| 1777971601 | 19.44° C | 45% | 930.5 hPa | 0 mm | 0.45 m/s, 147° | - | - |
| 1777971541 | 19.44° C | 46% | 930.8 hPa | 0 mm | 0.89 m/s, 150° | - | - |
| 1777971480 | 19.44° C | 46% | 930.7 hPa | 0 mm | 0.45 m/s, 169° | - | - |
| 1777971421 | 18.89° C | 47% | 930.6 hPa | 0 mm | 0.45 m/s, 132° | - | - |
| 1777971360 | 18.89° C | 46% | 930.7 hPa | 0 mm | 0 m/s | - | - |
| 1777971301 | 18.89° C | 46% | 930.9 hPa | 0 mm | 0 m/s | - | - |
| 1777971240 | 18.89° C | 45% | 930.8 hPa | 0 mm | 0 m/s | - | - |
| 1777971182 | 18.89° C | 47% | 930.9 hPa | 0 mm | 0.45 m/s, 184° | - | - |
| 1777971120 | 18.89° C | 48% | 930.6 hPa | 0 mm | 0.45 m/s, 177° | - | - |
| 1777971062 | 18.89° C | 50% | 930.9 hPa | 0 mm | 0.45 m/s, 154° | - | - |
| 1777971001 | 19.44° C | 47% | 930.7 hPa | 0 mm | 0.45 m/s, 140° | - | - |
| 1777970941 | 19.44° C | 46% | 930.9 hPa | 0 mm | 0.45 m/s, 161° | - | - |
| 1777970881 | 19.44° C | 46% | 930.8 hPa | 0 mm | 0.45 m/s, 145° | - | - |
| 1777970821 | 19.44° C | 46% | 930.7 hPa | 0 mm | 0.45 m/s, 162° | - | - |
| 1777970761 | 19.44° C | 45% | 930.8 hPa | 0 mm | 0.45 m/s, 204° | - | - |
| 1777970701 | 19.44° C | 45% | 930.7 hPa | 0 mm | 0 m/s | - | - |
| 1777970640 | 19.44° C | 45% | 930.7 hPa | 0 mm | 0 m/s | - | - |
| 1777970581 | 19.44° C | 47% | 930.7 hPa | 0 mm | 0 m/s | - | - |
* Rain since midnight (hover to see other rain measurements)
** Current wind speed in m/s (hover to see current wind gust speed)